Hourly Data Report for September 29, 2017

All times are specified in Local Standard Time (LST). Add 1 hour to adjust for Daylight Saving Time where and when it is observed.

PANGNIRTUNG
NUNAVUT

66°08'36.300" N
65°42'40.500" W
22.60 m
2403049
71826
WXP

Download Data

Hourly Data (September 2017)
Hourly Data Report for September 29, 2017
Temp Definition
°C
Dew Point Temp Definition
°C
Rel Hum Definition
%
Wind Dir Definition
10's deg

Wind Spd Definition
km/h
Visibility Definition
km
Stn Press Definition
kPa
Hmdx Definition


Wind Chill Definition


Weather Definition


TIME
00:00 -0.3 -2.2 87 24 29   100.16   -7 LegendNANA
01:00 -0.6 -3.0 84 25 23   100.17   -6 LegendNANA
02:00 -1.0 -3.3 85 26 24   100.17   -7 LegendNANA
03:00 -1.2 -3.9 82 29 18   100.21   -6 LegendNANA
04:00 -1.8 -5.0 79 27 25   100.25   -8 LegendNANA
05:00 -2.4 -6.0 76 28 23   100.31   -9 LegendNANA
06:00 -3.2 -8.5 67 29 24   100.33   -10 LegendNANA
07:00 -3.0 -8.5 66 28 27   100.36   -10 LegendNANA
08:00 -2.7 -9.8 58 29 16   100.37   -8 LegendNANA
09:00 -2.5 -8.9 61 27 21   100.36   -9 LegendNANA
10:00 -2.2 -9.2 59 28 20   100.37   -8 LegendNANA
11:00 -2.0 -9.0 58 28 27   100.37   -9 LegendNANA
12:00 -1.5 -9.1 56 28 26   100.40   -8 LegendNANA
13:00 -1.6 -8.4 60 27 28   100.40   -8 LegendNANA
14:00 -1.9 -9.9 54 31 17   100.43   -7 LegendNANA
15:00 -2.4 -9.9 56 28 17   100.39   -8 LegendNANA
16:00 -2.5 -10.6 54 26 15   100.36   -7 LegendNANA
17:00 -3.2 -10.4 58 29 10   100.32   -7 LegendNANA
18:00 -3.6 -10.3 60 29 15   100.30   -9 LegendNANA
19:00 -3.8 -9.8 63 29 11   100.27   -8 LegendNANA
20:00 -4.7 -10.8 62 31 3   100.24   -6 LegendNANA
21:00 -4.1 -10.9 59 31 13   100.18   -9 LegendNANA
22:00 -4.8 -10.7 63 29 12   100.11   -10 LegendNANA
23:00 -5.1 -10.2 67 25 10   100.07   -9 LegendNANA

Notes on Data Quality.

Legend

  • E = Estimated
  • M = Missing
  • NA = Not Available
  • ‡ = Partner data that is not subject to review by the National Climate Archives
Date modified: